• In Netherlands
  • List of Countries
  • For 7 days
  • Water Temperature
  • Satellite Maps
  • Weather Map
  • Weather Widgets
  • user-avatar
    Login

    Hourly Weather Megri

    Today, 27 May, Sunday

    Time Temperature Precipitation Wind Pressure Humidity
    00:00 +15°C° 0.1 mm 1 mps 624 mmHg 58%
    01:00 +15°C° 0 mm 1 mps 624 mmHg 58%
    02:00 +14°C° 0 mm 1 mps 624 mmHg 58%
    03:00 +14°C° 0 mm 1 mps 624 mmHg 60%
    04:00 +15°C° 0 mm 1 mps 625 mmHg 56%
    05:00 +15°C° 0 mm 0 mps 625 mmHg 53%
    06:00 +16°C° 0 mm 0 mps 626 mmHg 49%
    07:00 +19°C° 0 mm 1 mps 627 mmHg 45%
    08:00 +20°C° 0 mm 1 mps 627 mmHg 41%
    09:00 +20°C° 0 mm 2 mps 628 mmHg 37%
    10:00 +21°C° 0 mm 2 mps 628 mmHg 36%
    11:00 +23°C° 0 mm 2 mps 628 mmHg 34%
    12:00 +23°C° 0 mm 2 mps 629 mmHg 33%
    13:00 +23°C° 0.2 mm 2 mps 629 mmHg 35%
    14:00 +22°C° 0.2 mm 3 mps 628 mmHg 37%
    15:00 +22°C° 0.2 mm 3 mps 628 mmHg 39%
    16:00 +21°C° 0.3 mm 4 mps 628 mmHg 46%
    17:00 +20°C° 0.3 mm 4 mps 628 mmHg 52%
    18:00 +19°C° 0.3 mm 4 mps 628 mmHg 58%
    19:00 +18°C° 0 mm 4 mps 627 mmHg 64%
    20:00 +15°C° 0 mm 4 mps 627 mmHg 70%
    21:00 +14°C° 0 mm 4 mps 627 mmHg 75%
    22:00 +13°C° 0 mm 3 mps 627 mmHg 76%
    23:00 +13°C° 0 mm 3 mps 627 mmHg 77%

    Tomorrow, 28 May, Monday

    Time Temperature Precipitation Wind Pressure Humidity
    00:00 +12°C° 0 mm 3 mps 627 mmHg 78%
    01:00 +13°C° 0 mm 2 mps 627 mmHg 79%
    02:00 +13°C° 0 mm 2 mps 626 mmHg 79%
    03:00 +12°C° 0 mm 2 mps 626 mmHg 80%
    04:00 +13°C° 0 mm 2 mps 626 mmHg 76%
    05:00 +14°C° 0 mm 2 mps 626 mmHg 73%
    06:00 +14°C° 0 mm 1 mps 627 mmHg 69%
    07:00 +16°C° 0 mm 1 mps 627 mmHg 61%
    08:00 +19°C° 0 mm 1 mps 627 mmHg 53%
    09:00 +21°C° 0 mm 1 mps 628 mmHg 44%
    10:00 +22°C° 0 mm 1 mps 628 mmHg 40%
    11:00 +24°C° 0 mm 1 mps 628 mmHg 36%
    12:00 +25°C° 0 mm 1 mps 628 mmHg 32%
    13:00 +25°C° 0 mm 1 mps 628 mmHg 31%
    14:00 +26°C° 0 mm 1 mps 627 mmHg 29%
    15:00 +26°C° 0 mm 1 mps 627 mmHg 28%
    16:00 +25°C° 0 mm 2 mps 626 mmHg 31%
    17:00 +25°C° 0 mm 2 mps 626 mmHg 34%
    18:00 +24°C° 0 mm 2 mps 626 mmHg 37%
    19:00 +23°C° 0 mm 2 mps 626 mmHg 43%
    20:00 +20°C° 0 mm 2 mps 625 mmHg 49%
    21:00 +18°C° 0 mm 2 mps 625 mmHg 56%
    22:00 +18°C° 0 mm 2 mps 625 mmHg 58%
    23:00 +17°C° 0 mm 2 mps 625 mmHg 61%

    Day after tomorrow, 29 May, Tuesday

    Time Temperature Precipitation Wind Pressure Humidity
    00:00 +17°C° 0 mm 2 mps 624 mmHg 63%
    01:00 +16°C° 0 mm 2 mps 624 mmHg 63%
    02:00 +16°C° 0 mm 2 mps 624 mmHg 63%
    03:00 +15°C° 0 mm 2 mps 623 mmHg 64%
    04:00 +15°C° 0 mm 2 mps 623 mmHg 61%
    05:00 +16°C° 0 mm 3 mps 624 mmHg 59%
    06:00 +16°C° 0 mm 3 mps 624 mmHg 56%
    07:00 +17°C° 0 mm 3 mps 624 mmHg 51%
    08:00 +19°C° 0 mm 3 mps 624 mmHg 47%
    09:00 +20°C° 0 mm 4 mps 625 mmHg 42%
    10:00 +21°C° 0 mm 4 mps 625 mmHg 41%
    11:00 +22°C° 0 mm 4 mps 625 mmHg 40%
    12:00 +23°C° 0 mm 5 mps 625 mmHg 39%
    13:00 +22°C° 0.4 mm 5 mps 625 mmHg 43%
    14:00 +21°C° 0.4 mm 5 mps 625 mmHg 47%
    15:00 +20°C° 0.4 mm 4 mps 625 mmHg 51%
    16:00 +19°C° 0.3 mm 5 mps 624 mmHg 56%
    17:00 +17°C° 0.3 mm 5 mps 624 mmHg 60%
    18:00 +16°C° 0.3 mm 5 mps 624 mmHg 65%
    19:00 +15°C° 0 mm 5 mps 624 mmHg 69%
    20:00 +14°C° 0 mm 5 mps 624 mmHg 72%
    21:00 +13°C° 0 mm 4 mps 624 mmHg 76%
    22:00 +13°C° 0.1 mm 4 mps 624 mmHg 77%
    23:00 +12°C° 0.1 mm 4 mps 624 mmHg 77%

    30 May, Wednesday

    Time Temperature Precipitation Wind Pressure Humidity
    00:00 +12°C° 0.1 mm 3 mps 624 mmHg 78%
    01:00 +12°C° 0 mm 3 mps 623 mmHg 79%
    02:00 +11°C° 0 mm 3 mps 623 mmHg 80%
    03:00 +11°C° 0 mm 3 mps 623 mmHg 81%
    04:00 +11°C° 0.1 mm 3 mps 623 mmHg 80%
    05:00 +11°C° 0.1 mm 3 mps 623 mmHg 79%
    06:00 +11°C° 0.1 mm 3 mps 623 mmHg 78%
    07:00 +13°C° 0 mm 3 mps 624 mmHg 72%
    08:00 +14°C° 0 mm 3 mps 624 mmHg 67%
    09:00 +16°C° 0 mm 3 mps 625 mmHg 61%
    10:00 +18°C° 0 mm 3 mps 625 mmHg 58%
    11:00 +19°C° 0 mm 3 mps 625 mmHg 54%
    12:00 +20°C° 0 mm 3 mps 625 mmHg 50%
    13:00 +20°C° 0.1 mm 3 mps 625 mmHg 49%
    14:00 +21°C° 0.1 mm 3 mps 625 mmHg 47%
    15:00 +21°C° 0.1 mm 3 mps 625 mmHg 45%
    16:00 +21°C° 0.2 mm 3 mps 624 mmHg 48%
    17:00 +20°C° 0.2 mm 4 mps 624 mmHg 52%
    18:00 +19°C° 0.2 mm 4 mps 623 mmHg 55%
    19:00 +18°C° 0.1 mm 4 mps 623 mmHg 62%
    20:00 +16°C° 0.1 mm 3 mps 623 mmHg 68%
    21:00 +14°C° 0.1 mm 3 mps 623 mmHg 75%
    22:00 +14°C° 0.3 mm 3 mps 623 mmHg 75%
    23:00 +13°C° 0.3 mm 3 mps 622 mmHg 76%

    31 May, Thursday

    Time Temperature Precipitation Wind Pressure Humidity
    00:00 +13°C° 0.3 mm 3 mps 622 mmHg 76%
    01:00 +14°C° 0.4 mm 2 mps 622 mmHg 76%
    02:00 +14°C° 0.4 mm 2 mps 621 mmHg 75%
    03:00 +14°C° 0.4 mm 2 mps 621 mmHg 74%
    04:00 +15°C° 0.1 mm 2 mps 621 mmHg 72%
    05:00 +15°C° 0.1 mm 2 mps 621 mmHg 71%
    06:00 +16°C° 0.1 mm 2 mps 621 mmHg 69%
    07:00 +18°C° 0 mm 2 mps 622 mmHg 61%
    08:00 +20°C° 0 mm 2 mps 622 mmHg 53%
    09:00 +23°C° 0 mm 2 mps 623 mmHg 45%
    10:00 +25°C° 0.1 mm 4 mps 623 mmHg 39%
    11:00 +26°C° 0.1 mm 5 mps 623 mmHg 34%
    12:00 +28°C° 0.1 mm 6 mps 623 mmHg 28%
    13:00 +28°C° 0 mm 6 mps 623 mmHg 26%
    14:00 +28°C° 0 mm 7 mps 622 mmHg 25%
    15:00 +29°C° 0 mm 7 mps 622 mmHg 24%
    16:00 +27°C° 0 mm 7 mps 622 mmHg 27%
    17:00 +26°C° 0 mm 7 mps 621 mmHg 29%
    18:00 +24°C° 0 mm 7 mps 621 mmHg 32%
    19:00 +23°C° 0 mm 6 mps 621 mmHg 35%
    20:00 +21°C° 0 mm 5 mps 621 mmHg 37%
    21:00 +19°C° 0 mm 4 mps 621 mmHg 39%
    22:00 +18°C° 0 mm 4 mps 621 mmHg 42%
    23:00 +18°C° 0 mm 3 mps 621 mmHg 44%

    1 June, Friday

    Time Temperature Precipitation Wind Pressure Humidity
    00:00 +17°C° 0 mm 2 mps 621 mmHg 47%
    01:00 +16°C° 0 mm 2 mps 620 mmHg 49%
    02:00 +16°C° 0 mm 2 mps 620 mmHg 51%
    03:00 +15°C° 0 mm 2 mps 620 mmHg 54%
    04:00 +16°C° 0 mm 2 mps 620 mmHg 53%
    05:00 +16°C° 0 mm 2 mps 621 mmHg 52%
    06:00 +17°C° 0 mm 2 mps 621 mmHg 51%
    07:00 +18°C° 0 mm 3 mps 621 mmHg 45%
    08:00 +20°C° 0 mm 3 mps 622 mmHg 39%
    09:00 +22°C° 0 mm 4 mps 622 mmHg 33%
    10:00 +23°C° 0 mm 5 mps 622 mmHg 31%
    11:00 +25°C° 0 mm 5 mps 622 mmHg 28%
    12:00 +26°C° 0 mm 6 mps 622 mmHg 26%
    13:00 +27°C° 0 mm 6 mps 622 mmHg 24%
    14:00 +27°C° 0 mm 6 mps 622 mmHg 23%
    15:00 +28°C° 0 mm 6 mps 622 mmHg 22%
    16:00 +27°C° 0 mm 5 mps 622 mmHg 23%
    17:00 +26°C° 0 mm 5 mps 622 mmHg 24%
    18:00 +26°C° 0 mm 4 mps 621 mmHg 25%
    19:00 +22°C° 0 mm 3 mps 621 mmHg 30%
    20:00 +20°C° 0 mm 2 mps 621 mmHg 34%
    21:00 +19°C° 0 mm 1 mps 620 mmHg 39%
    22:00 +18°C° 0 mm 1 mps 620 mmHg 42%
    23:00 +18°C° 0 mm 1 mps 620 mmHg 45%
    Show more